CW6829 Weather Reports


Display with metric or nautical units.
time (UTC)temp
F
wind
direction
speed
MPH
gust
MPH
rain 1hr
in
rain 24hr
in
rain mn
in
humidity
%
barometer
mb
20260503202020 81 90 1.0 5.0 0.00 0.00 0.00 43 1012.7
20260503201040 81 338 1.0 6.0 0.00 0.00 0.00 41 1012.8
20260503200020 80 0 2.0 6.0 0.00 0.00 0.00 44 1013.0
20260503195019 80 315 2.0 6.0 0.00 0.00 0.00 46 1013.2
20260503194018 79 315 3.0 7.0 0.00 0.00 0.00 48 1013.3
20260503193020 79 315 1.0 7.0 0.00 0.00 0.00 44 1013.4
20260503192059 79 23 1.0 6.0 0.00 0.00 0.00 45 1013.5
20260503191040 79 315 1.0 5.0 0.00 0.00 0.00 50 1013.6
20260503190018 78 315 1.0 7.0 0.00 0.00 0.00 49 1013.8
20260503185059 77 0.0 4.0 0.00 0.00 0.00 49 1013.9
20260503184020 76 90 1.0 3.0 0.00 0.00 0.00 48 1014.0
20260503183020 76 338 1.0 5.0 0.00 0.00 0.00 50 1014.1
20260503182019 75 0 2.0 5.0 0.00 0.00 0.00 51 1014.1
20260503181019 75 0 1.0 6.0 0.00 0.00 0.00 51 1014.2
20260503180020 73 0.0 3.0 0.00 0.00 0.00 57 1014.2
20260503175018 72 315 1.0 6.0 0.00 0.00 0.00 59 1014.3
20260503174020 72 0.0 4.0 0.00 0.00 0.00 62 1014.3
20260503173019 73 0 1.0 6.0 0.00 0.00 0.00 59 1014.5
20260503172019 72 0 1.0 5.0 0.00 0.00 0.00 60 1014.4
20260503171019 73 0.0 1.0 0.00 0.00 0.00 58 1014.5
20260503131020 51 0.0 0.0 0.00 0.00 0.00 92 1014.5
20260503081019 55 0.0 0.0 0.00 0.00 0.00 88 1015.2
20260503072018 57 0.0 0.0 0.00 0.00 0.00 86 1015.2
20260503071019 57 0.0 0.0 0.00 0.00 0.00 86 1015.1
20260503055039 58 0.0 0.0 0.00 0.00 0.00 80 1015.1
20260503054041 59 0.0 0.0 0.00 0.00 0.00 79 1015.0
20260503053020 59 0.0 0.0 0.00 0.00 0.00 78 1015.1
20260503052019 60 0.0 0.0 0.00 0.00 0.00 76 1015.1
20260503051059 60 0.0 0.0 0.00 0.00 0.00 74 1015.0
20260503050021 61 0.0 0.0 0.00 0.00 0.00 73 1015.0
20260503045038 61 0.0 0.0 0.00 0.00 0.00 72 1014.8
20260503044019 62 0.0 0.0 0.00 0.00 0.00 72 1014.7
20260503043018 62 0.0 0.0 0.00 0.00 0.00 72 1014.6
20260503042018 63 0.0 0.0 0.00 0.00 0.00 71 1014.4
20260503041038 63 0.0 0.0 0.00 0.00 0.00 70 1014.3
20260503040020 64 0.0 0.0 0.00 0.00 0.00 70 1014.1
20260503035018 65 0.0 0.0 0.00 0.00 0.00 68 1013.9
20260503034019 65 0.0 0.0 0.00 0.00 0.00 66 1013.7
20260503033018 66 0.0 0.0 0.00 0.00 0.00 65 1013.6
20260503032018 67 0.0 0.0 0.00 0.00 0.00 64 1013.5
20260503031020 69 0.0 0.0 0.00 0.00 0.00 62 1013.5
20260503030019 70 0.0 0.0 0.00 0.00 0.00 60 1013.4
20260503025019 71 0.0 0.0 0.00 0.00 0.00 59 1013.3
20260503024019 72 0.0 1.0 0.00 0.00 0.00 57 1013.3
20260503023059 73 0.0 1.0 0.00 0.00 0.00 55 1013.3
20260503022018 74 0.0 0.0 0.00 0.00 0.00 52 1013.2
20260503021040 75 0.0 2.0 0.00 0.00 0.00 51 1013.2
20260503020018 75 0.0 3.0 0.00 0.00 0.00 52 1013.2
20260503015019 75 0.0 1.0 0.00 0.00 0.00 52 1013.2
20260503014020 76 338 1.0 5.0 0.00 0.00 0.00 52 1013.3
20260503013020 76 338 1.0 7.0 0.00 0.00 0.00 51 1013.3
20260503012040 76 315 1.0 6.0 0.00 0.00 0.00 51 1013.3
20260503011019 75 0.0 3.0 0.00 0.00 0.00 52 1013.3
20260503010021 76 0 1.0 5.0 0.00 0.00 0.00 52 1013.3
20260503005019 76 0 2.0 8.0 0.00 0.00 0.00 52 1013.4
20260503004020 76 338 1.0 7.0 0.00 0.00 0.00 51 1013.5
20260503003021 77 338 2.0 9.0 0.00 0.00 0.00 49 1013.4
20260503002101 76 315 1.0 11.0 0.00 0.00 0.00 51 1013.4
20260503001020 77 338 2.0 9.0 0.00 0.00 0.00 50 1013.5
20260503000020 77 315 2.0 8.0 0.00 0.00 0.00 51 1013.5
20260502235021 77 0 1.0 9.0 0.00 0.00 0.00 50 1013.5
20260502234040 77 315 1.0 7.0 0.00 0.00 0.00 49 1013.8
20260502233020 77 90 1.0 7.0 0.00 0.00 0.00 50 1013.9
20260502232021 77 0.0 7.0 0.00 0.00 0.00 50 1014.0
20260502231020 76 315 1.0 5.0 0.00 0.00 0.00 51 1014.2
20260502230019 77 293 1.0 6.0 0.00 0.00 0.00 52 1014.3
20260502225059 76 293 1.0 7.0 0.00 0.00 0.00 55 1014.5
20260502224019 75 315 2.0 5.0 0.00 0.00 0.00 52 1014.6
20260502223039 75 0 1.0 6.0 0.00 0.00 0.00 55 1014.7
20260502222020 75 293 2.0 7.0 0.00 0.00 0.00 52 1014.8
20260502221040 74 270 1.0 5.0 0.00 0.00 0.00 53 1014.9
20260502220020 74 0 2.0 10.0 0.00 0.00 0.00 53 1015.0
20260502215019 74 293 2.0 11.0 0.00 0.00 0.00 53 1015.1
20260502214020 74 338 2.0 8.0 0.00 0.00 0.00 54 1015.2
20260502213019 73 0 1.0 8.0 0.00 0.00 0.00 55 1015.4
20260502212021 72 315 2.0 7.0 0.00 0.00 0.00 57 1015.5
20260502211019 73 315 1.0 7.0 0.00 0.00 0.00 55 1015.6
20260502210019 72 0.0 4.0 0.00 0.00 0.00 56 1015.7
20260502205018 72 0.0 4.0 0.00 0.00 0.00 59 1015.8
20260502204019 71 90 1.0 5.0 0.00 0.00 0.00 57 1015.8
20260502203018 71 0.0 4.0 0.00 0.00 0.00 59 1015.9